Previsão horária em Abaetetuba

Hoje, 15 Abril, Quinta-feira

Tempo Temperatura Precipitação Vento Pressão Humidade
00:00 +26°C° 0.4 mm 1 m/s 757 mmHg 97%
01:00 +25°C° 0.3 mm 1 m/s 757 mmHg 97%
02:00 +25°C° 0.3 mm 1 m/s 757 mmHg 97%
03:00 +25°C° 0.3 mm 1 m/s 756 mmHg 97%
04:00 +25°C° 0.1 mm 1 m/s 756 mmHg 97%
05:00 +25°C° 0.1 mm 1 m/s 757 mmHg 97%
06:00 +25°C° 0.1 mm 1 m/s 757 mmHg 98%
07:00 +26°C° 0 mm 1 m/s 757 mmHg 94%
08:00 +27°C° 0 mm 2 m/s 758 mmHg 90%
09:00 +28°C° 0 mm 2 m/s 758 mmHg 86%
10:00 +30°C° 0 mm 2 m/s 758 mmHg 76%
11:00 +32°C° 0 mm 2 m/s 758 mmHg 66%
12:00 +35°C° 0 mm 2 m/s 757 mmHg 55%
13:00 +34°C° 0.1 mm 2 m/s 757 mmHg 61%
14:00 +32°C° 0.1 mm 1 m/s 756 mmHg 67%
15:00 +31°C° 0.1 mm 1 m/s 755 mmHg 72%
16:00 +30°C° 0.3 mm 1 m/s 755 mmHg 78%
17:00 +29°C° 0.3 mm 1 m/s 755 mmHg 84%
18:00 +27°C° 0.3 mm 2 m/s 755 mmHg 90%
19:00 +27°C° 0.3 mm 2 m/s 756 mmHg 92%
20:00 +26°C° 0.3 mm 2 m/s 757 mmHg 94%
21:00 +26°C° 0.3 mm 2 m/s 758 mmHg 96%
22:00 +26°C° 0.1 mm 2 m/s 758 mmHg 96%
23:00 +25°C° 0.1 mm 2 m/s 758 mmHg 96%

Amanhã, 16 Abril, Sexta-feira

Tempo Temperatura Precipitação Vento Pressão Humidade
00:00 +25°C° 0.1 mm 2 m/s 758 mmHg 96%
01:00 +25°C° 0.2 mm 2 m/s 757 mmHg 96%
02:00 +25°C° 0.2 mm 2 m/s 757 mmHg 97%
03:00 +25°C° 0.2 mm 2 m/s 756 mmHg 97%
04:00 +25°C° 0.2 mm 2 m/s 757 mmHg 97%
05:00 +25°C° 0.2 mm 2 m/s 757 mmHg 97%
06:00 +25°C° 0.2 mm 2 m/s 757 mmHg 98%
07:00 +26°C° 0.1 mm 2 m/s 757 mmHg 93%
08:00 +27°C° 0.1 mm 2 m/s 758 mmHg 88%
09:00 +29°C° 0.1 mm 2 m/s 758 mmHg 83%
10:00 +30°C° 0.2 mm 2 m/s 758 mmHg 76%
11:00 +31°C° 0.2 mm 2 m/s 758 mmHg 69%
12:00 +32°C° 0.2 mm 2 m/s 757 mmHg 62%
13:00 +32°C° 0.7 mm 2 m/s 757 mmHg 68%
14:00 +31°C° 0.7 mm 2 m/s 756 mmHg 74%
15:00 +31°C° 0.7 mm 2 m/s 755 mmHg 80%
16:00 +29°C° 1.7 mm 2 m/s 755 mmHg 85%
17:00 +28°C° 1.7 mm 2 m/s 755 mmHg 89%
18:00 +27°C° 1.7 mm 2 m/s 756 mmHg 94%
19:00 +26°C° 0.5 mm 2 m/s 756 mmHg 95%
20:00 +26°C° 0.5 mm 2 m/s 757 mmHg 95%
21:00 +26°C° 0.5 mm 2 m/s 757 mmHg 96%
22:00 +26°C° 1 mm 2 m/s 757 mmHg 96%
23:00 +26°C° 1 mm 2 m/s 758 mmHg 96%

Depois de amanhã, 17 Abril, Sábado

Tempo Temperatura Precipitação Vento Pressão Humidade
00:00 +25°C° 1 mm 2 m/s 758 mmHg 96%
01:00 +25°C° 0.8 mm 2 m/s 757 mmHg 96%
02:00 +25°C° 0.8 mm 2 m/s 757 mmHg 96%
03:00 +25°C° 0.8 mm 1 m/s 756 mmHg 96%
04:00 +25°C° 0.6 mm 1 m/s 757 mmHg 96%
05:00 +25°C° 0.6 mm 1 m/s 757 mmHg 96%
06:00 +25°C° 0.6 mm 1 m/s 757 mmHg 96%
07:00 +25°C° 0.9 mm 1 m/s 758 mmHg 96%
08:00 +25°C° 0.9 mm 1 m/s 759 mmHg 96%
09:00 +26°C° 0.9 mm 1 m/s 759 mmHg 95%
10:00 +26°C° 1.2 mm 1 m/s 759 mmHg 96%
11:00 +26°C° 1.2 mm 1 m/s 759 mmHg 96%
12:00 +26°C° 1.2 mm 1 m/s 759 mmHg 96%
13:00 +26°C° 0.3 mm 1 m/s 758 mmHg 96%
14:00 +24°C° 0.3 mm 0 m/s 757 mmHg 97%
15:00 +24°C° 0.3 mm 0 m/s 757 mmHg 97%
16:00 +24°C° 0.3 mm 0 m/s 757 mmHg 97%
17:00 +25°C° 0.3 mm 1 m/s 757 mmHg 97%
18:00 +25°C° 0.3 mm 1 m/s 757 mmHg 97%
19:00 +25°C° 0.1 mm 1 m/s 758 mmHg 97%
20:00 +25°C° 0.1 mm 1 m/s 758 mmHg 97%
21:00 +25°C° 0.1 mm 1 m/s 758 mmHg 97%
22:00 +25°C° 0.2 mm 1 m/s 758 mmHg 97%
23:00 +25°C° 0.2 mm 1 m/s 758 mmHg 97%

18 Abril, Domingo

Tempo Temperatura Precipitação Vento Pressão Humidade
00:00 +25°C° 0.2 mm 1 m/s 758 mmHg 97%
01:00 +24°C° 0 mm 1 m/s 758 mmHg 97%
02:00 +24°C° 0 mm 1 m/s 758 mmHg 97%
03:00 +24°C° 0 mm 1 m/s 757 mmHg 97%
04:00 +24°C° 0 mm 1 m/s 757 mmHg 97%
05:00 +24°C° 0 mm 1 m/s 758 mmHg 97%
06:00 +24°C° 0 mm 1 m/s 758 mmHg 97%
07:00 +25°C° 0 mm 1 m/s 758 mmHg 94%
08:00 +26°C° 0 mm 1 m/s 759 mmHg 90%
09:00 +27°C° 0 mm 1 m/s 759 mmHg 87%
10:00 +27°C° 0.5 mm 1 m/s 759 mmHg 86%
11:00 +28°C° 0.5 mm 1 m/s 759 mmHg 85%
12:00 +29°C° 0.5 mm 1 m/s 759 mmHg 84%
13:00 +29°C° 1.4 mm 1 m/s 758 mmHg 85%
14:00 +29°C° 1.4 mm 2 m/s 757 mmHg 87%
15:00 +29°C° 1.4 mm 2 m/s 757 mmHg 88%
16:00 +28°C° 1.4 mm 2 m/s 757 mmHg 91%
17:00 +27°C° 1.4 mm 2 m/s 757 mmHg 93%
18:00 +26°C° 1.4 mm 2 m/s 757 mmHg 95%
19:00 +26°C° 0.7 mm 2 m/s 757 mmHg 96%
20:00 +25°C° 0.7 mm 2 m/s 758 mmHg 96%
21:00 +25°C° 0.7 mm 2 m/s 758 mmHg 97%
22:00 +25°C° 0.7 mm 2 m/s 759 mmHg 97%
23:00 +25°C° 0.7 mm 2 m/s 759 mmHg 97%

19 Abril, Segunda-feira

Tempo Temperatura Precipitação Vento Pressão Humidade
00:00 +24°C° 0.7 mm 2 m/s 759 mmHg 97%
01:00 +24°C° 0.2 mm 1 m/s 758 mmHg 97%
02:00 +24°C° 0.2 mm 1 m/s 758 mmHg 97%
03:00 +24°C° 0.2 mm 1 m/s 757 mmHg 97%
04:00 +24°C° 0 mm 1 m/s 757 mmHg 97%
05:00 +24°C° 0 mm 1 m/s 758 mmHg 97%
06:00 +24°C° 0 mm 1 m/s 758 mmHg 97%
07:00 +25°C° 0 mm 1 m/s 758 mmHg 92%
08:00 +26°C° 0 mm 1 m/s 759 mmHg 88%
09:00 +28°C° 0 mm 1 m/s 759 mmHg 83%
10:00 +29°C° 0 mm 1 m/s 759 mmHg 74%
11:00 +31°C° 0 mm 1 m/s 759 mmHg 65%
12:00 +33°C° 0 mm 1 m/s 758 mmHg 56%
13:00 +32°C° 0.2 mm 1 m/s 758 mmHg 61%
14:00 +31°C° 0.2 mm 1 m/s 757 mmHg 66%
15:00 +30°C° 0.2 mm 1 m/s 756 mmHg 71%
16:00 +29°C° 0.6 mm 1 m/s 757 mmHg 78%
17:00 +28°C° 0.6 mm 1 m/s 757 mmHg 85%
18:00 +26°C° 0.6 mm 1 m/s 757 mmHg 92%
19:00 +26°C° 0.6 mm 1 m/s 758 mmHg 93%
20:00 +26°C° 0.6 mm 1 m/s 758 mmHg 94%
21:00 +25°C° 0.6 mm 1 m/s 759 mmHg 95%
22:00 +25°C° 1.8 mm 1 m/s 759 mmHg 96%
23:00 +25°C° 1.8 mm 1 m/s 759 mmHg 96%

20 Abril, Terça-feira

Tempo Temperatura Precipitação Vento Pressão Humidade
00:00 +25°C° 1.8 mm 1 m/s 759 mmHg 97%
01:00 +25°C° 7.4 mm 1 m/s 758 mmHg 98%
02:00 +25°C° 7.4 mm 1 m/s 758 mmHg 98%
03:00 +25°C° 7.4 mm 1 m/s 757 mmHg 98%
04:00 +25°C° 2.5 mm 1 m/s 758 mmHg 98%
05:00 +24°C° 2.5 mm 1 m/s 758 mmHg 98%
06:00 +22°C° 2.5 mm 0 m/s 758 mmHg 98%
07:00 +23°C° 0.1 mm 0 m/s 759 mmHg 97%
08:00 +23°C° 0.1 mm 0 m/s 759 mmHg 96%
09:00 +24°C° 0.1 mm 0 m/s 760 mmHg 95%
10:00 +25°C° 0.1 mm 0 m/s 760 mmHg 86%
11:00 +27°C° 0.1 mm 0 m/s 760 mmHg 77%
12:00 +29°C° 0.1 mm 0 m/s 759 mmHg 69%
13:00 +31°C° 0.2 mm 1 m/s 759 mmHg 69%
14:00 +31°C° 0.2 mm 1 m/s 758 mmHg 69%
15:00 +30°C° 0.2 mm 1 m/s 757 mmHg 70%
16:00 +29°C° 0.2 mm 1 m/s 757 mmHg 77%
17:00 +28°C° 0.2 mm 2 m/s 757 mmHg 84%
18:00 +27°C° 0.2 mm 2 m/s 757 mmHg 92%
19:00 +26°C° 0.2 mm 2 m/s 758 mmHg 93%
20:00 +25°C° 0.2 mm 2 m/s 758 mmHg 95%
21:00 +25°C° 0.2 mm 1 m/s 759 mmHg 97%
22:00 +25°C° 0.4 mm 2 m/s 759 mmHg 97%
23:00 +25°C° 0.4 mm 2 m/s 759 mmHg 97%
Mostrar mais

Necessitamos do seu Consentimento

A Meteoprog e os seus Fornecedores de Serviços podem armazenar e aceder a dados pessoais como cookies, identificadores do dispositivo ou outras tecnologias semelhantes existentes no seu dispositivo e processar estes dados para personalizar conteúdos e anúncios, assim como funcionalidades nas redes sociais e análise de tráfego.

  • Armazenar e/ou aceder a informações no seu dispositivo

    Os cookies, identificadores do dispositivo ou outras informações podem ser armazenados ou acedidos no seu dispositivo, para os fins acima indicados.

  • Anúncios e conteúdos personalizados, medição de anúncios e conteúdos, dados sobre o público-alvo e desenvolvimento de produtos

    Os anúncios e os conteúdos podem ser personalizados com base num perfil. Podem ser adicionados dados adicionais para uma maior personalização dos anúncios e dos conteúdos. A eficácia dos anúncios e dos conteúdos pode ser medida. Podem ser obtidas informações sobre o público que visualizou os anúncios e os conteúdos. Estes dados podem ser usados para desenvolver ou melhorar sistemas, softwares ou a experiência do utilizador.

Ao clicar em "Eu concordo”, permitirá o uso de cookies, identificadores do dispositivo e web beacons mencionados ou outras tecnologias semelhantes. As configurações do navegador do seu dispositivo podem ser alteradas.

Para certos fins, podem ser invocados interesses legítimos ao invés de consentimento. Pode ler mais informação sobre este assunto na nossa Política de Privacidade e Cookies.